Home   Weather   Brussels   Past weeks

Flag for Belgium Past Weather in Brussels, Belgium — Yesterday and Last 2 Weeks

Now
68 °F

Passing clouds.


Feels Like: 68 °F
Forecast: 58 / 72 °F
Wind: 6 mph from Southwest

Location: Brussels National Airport

Current Time: Sep 27, 2016 at 2:19:16 PM

Latest Report: Sep 27, 2016 at 1:50 PM


Visibility: N/A

Pressure: 30.30 "Hg

Humidity: 43%

Dew Point: 45 °F

Location of BrusselsLocation

Past Weather in Brussels — Graph

°F

Brussels Temperature Yesterday

Maximum temperature yesterday: 63 °F (at 12:50 PM)
Minimum temperature yesterday: 48 °F (at 6:50 AM)
Average temperature yesterday: 56 °F

High & Low Weather Summary for the Past Weeks

 TemperatureHumidityPressure
High90 °F (Sep 13, 4:20 PM)100% (Sep 15, 3:20 AM)30.33 "Hg (Sep 15, 3:20 AM)
Low45 °F (Sep 27, 5:50 AM)33% (Sep 13, 5:20 PM)29.80 "Hg (Sep 15, 4:20 AM)
Average64 °F71%30.06 "Hg
* Reported Sep 12 12:20 PM — Sep 27 12:50 PM, Brussels, Weather by CustomWeather, © 2016

Note: Actual official high and low records may vary slightly from our data, if they occured in-between our weather recording intervals... More about our weather records

Advertising

Brussels Weather History for the Previous 24 Hours

Scroll right to see more
 ConditionsComfort  
Time TempWeatherWind HumidityBarometerVisibility
12:50 PM
Tue, Sep 27
66 °FPassing clouds.6 mph52%30.33 "HgN/A
12:20 PM64 °FPassing clouds.7 mph56%30.33 "HgN/A
11:50 AM63 °FPassing clouds.7 mph64%30.33 "HgN/A
11:20 AM61 °FPassing clouds.8 mph72%30.33 "HgN/A
10:50 AM61 °FSunny.7 mph72%30.30 "Hg10 mi
10:20 AM59 °FSunny.7 mph77%30.30 "Hg10 mi
9:50 AM57 °FSunny.3 mph82%30.30 "Hg10 mi
9:20 AM54 °FSunny.5 mph88%30.30 "Hg10 mi
8:50 AM50 °FSunny.5 mph94%30.30 "Hg10 mi
8:20 AM46 °FSunny.6 mph100%30.30 "Hg10 mi
7:50 AM45 °FSunny.5 mph93%30.30 "Hg10 mi
7:20 AM45 °FClear.5 mph93%30.27 "Hg10 mi
6:50 AM45 °FClear.2 mph93%30.27 "Hg10 mi
6:20 AM45 °FClear.2 mph93%30.27 "Hg10 mi
5:50 AM45 °FClear.3 mph93%30.27 "Hg10 mi
5:20 AM46 °FClear.5 mph93%30.27 "Hg10 mi
4:50 AM46 °FClear.6 mph93%30.27 "Hg10 mi
4:20 AM46 °FClear.5 mph93%30.27 "Hg10 mi
3:50 AM46 °FClear.5 mph93%30.27 "Hg10 mi
3:20 AM46 °FClear.5 mph93%30.27 "Hg10 mi
2:50 AM48 °FClear.3 mph94%30.27 "Hg10 mi
2:20 AM46 °FClear.3 mph93%30.27 "Hg10 mi
1:50 AM46 °FClear.3 mph100%30.27 "Hg10 mi
1:20 AM48 °FClear.3 mph94%30.27 "Hg10 mi
12:50 AM48 °FClear.3 mph94%30.27 "Hg10 mi
12:20 AM48 °FClear.3 mph94%30.24 "Hg10 mi
11:50 PM
Mon, Sep 26
50 °FClear.3 mph88%30.24 "Hg10 mi
11:20 PM50 °FClear.3 mph94%30.24 "Hg10 mi
10:50 PM54 °FClear.2 mph88%30.24 "Hg10 mi
10:20 PM54 °FClear.2 mph88%30.24 "Hg10 mi
9:50 PM54 °FClear.3 mph88%30.24 "Hg10 mi
9:20 PM55 °FClear.2 mph82%30.24 "Hg10 mi
8:50 PM55 °FClear.2 mph82%30.24 "Hg10 mi
8:20 PM57 °FClear.3 mph77%30.24 "Hg10 mi
7:50 PM59 °FClear.No wind72%30.24 "Hg10 mi
7:20 PM59 °FPassing clouds.2 mph72%30.24 "HgN/A
6:50 PM61 °FPassing clouds.3 mph68%30.24 "HgN/A
6:20 PM61 °FPassing clouds.2 mph63%30.24 "HgN/A
5:50 PM61 °FPassing clouds.2 mph59%30.24 "HgN/A
5:20 PM61 °FPassing clouds.5 mph55%30.24 "HgN/A
4:50 PM63 °FPassing clouds.5 mph56%30.24 "HgN/A
4:20 PM61 °FPassing clouds.7 mph59%30.24 "HgN/A
3:50 PM61 °FPassing clouds.7 mph63%30.24 "HgN/A
3:20 PM63 °FPassing clouds.7 mph59%30.24 "HgN/A
2:50 PM63 °FPassing clouds.5 mph59%30.24 "HgN/A
2:20 PM63 °FPassing clouds.3 mph59%30.24 "HgN/A
Weather by CustomWeather, © 2016

See weather overviewHow to use our weather pages